DELTA 1 DEB

Satellite information

Favourite Embed

Satellite Type and Status

DEBRISIN ORBIT

Key statistics

Satellite DELTA 1 DEB at a glance.

Uptime

17536

Days in orbit

Revolutions

≈ 13.7

Per day

Orbit

LEO

Low Earth Orbit

Inclination

29.2

Latest

Satellite identification and parameters

Extended collection of information and parameters for DELTA 1 DEB.

Object identification

Identified? True

Debris? True

Object name: DELTA 1 DEB

International designator: 1977-065EV

Object number (NORAD): 10626

Object ID (CCSDS): 10626

Country: UNITED STATES OF AMERICA (US)

Current information (Y/N): Y

RCS size: SMALL

Orbital parameters

Period: 105.422 minutes

Inclination: 29.1784 deg

SMA: 7392.321 km

Apoapsis: 1505.155 km

Periapsis: 523.218 km

RAAN: 80.2147 deg

Eccentricy: 0.066416

Argument of periapsis: 298.0757 deg

Mean anomaly: 55.4207 deg

Mean motion: 13.65939672 rev/day

Mean motion (dot): 0.00000949 rev/day2

B* drag term: 0.00020766 1/REarth

Two-line elements (TLE)

Creation date: July 18, 2025, 2:44 a.m.

Reference frame: TEME

Reference center: EARTH

Epoch: July 17, 2025, 9:33 p.m. UTC

TLE line 0: 0 DELTA 1 DEB

TLE line 1: 1 10626U 77065EV 25198.89857460 .00000949 00000-0 20766-3 0 9998

TLE line 2: 2 10626 29.1784 80.2147 0664160 298.0757 55.4207 13.65939672336838

Live tracking on map

Real-time ground track for satellite DELTA 1 DEB.

In-orbit conjunctions

A list of the most updated potential collisions computed for object DELTA 1 DEB.

Target Orbit TCA Probability of collision Miss distance Type
COSMOS 336 LEO 2025-01-16 16:19:02 0.0001059409 426.0 (m) PAYLOAD

Associated space launch

Japanese meteorological satellite built by Hughes Space and Communications Company

DELTA 1 DEB was lifted into orbit during the mission ‘Delta 2914 | Himawari’, on board a Delta 2914 space rocket.

The launch took place on July 14, 1977, 10:39 a.m. from Space Launch Complex 17B.

For more information about the launch, click the button.

Launch to space Delta 2914 | Himawari
Delta 2914 | Himawari

Agency: N/A

Status: Launch Successful

Launch date: July 14, 1977, 10:39 a.m. UTC

Rocket: Delta 2914

Launch pad: Space Launch Complex 17B

Location: Cape Canaveral SFS, FL, USA

...

Latest news about this satellite

There are no fresh news available about this satellite. Check back as we update our databases every day.


Newsletter sign-up

Weekly statistics, charts and insights to help you stay on top of the space industry.